Terminal Aerodrome Forecast
Issued by NWS

Home | Current Version | Previous Version | Text Only | Print | Product List | Glossary On
Versions: 1 2 3 4 5 6 7 8 9 10 11 12 13 14 15 16
000
FTUS44 KJAN 231700
TAFHKS
TAF
KHKS 231732Z 2318/2418 19015G24KT P6SM SCT015 BKN025
      TEMPO 2318/2321 BKN015 OVC035
     FM232100 20014G24KT P6SM FEW050=

USA.gov is the U.S. government's official web portal to all federal, state and local government web resources and services.